Skip Page Navigation
NASA JPL Caltech
NASA Logo - Jet Propulsion Laboratory + View the NASA Portal
+ Center for Near-Earth Object Studies
JPL Home Earth Solar System Stars & Galaxies Technology
JPL Solar System Dynamics
BODIES ORBITS EPHEMERIDES TOOLS PHYSICAL DATA DISCOVERY FAQ SITE MAP
JPL Small-Body Database Browser
Search: [ help ]  
101753 (1999 FT19)
Classification: Main-belt Asteroid          SPK-ID: 2101753
Ephemeris | Orbit Diagram | Orbital Elements | Mission Design | Physical Parameters | Discovery Circumstances ]

[ show orbit diagram ]
Orbital Elements at Epoch 2459000.5 (2020-May-31.0) TDB
Reference: JPL 17 (heliocentric ecliptic J2000)
 Element Value Uncertainty (1-sigma)   Units 
e .1332453388024938 3.8666e-08  
a 2.588585463939264 1.4004e-08 au
q 2.243668516777467 9.9163e-08 au
i 14.20697550731936 4.5025e-06 deg
node 177.4127593045471 2.0182e-05 deg
peri 293.5911688795601 2.7822e-05 deg
M 90.96239394335456 1.9432e-05 deg
tp 2458616.128153722928
(2019-May-12.62815372)
8.1751e-05 TDB
period 1521.220568864052
4.16
1.2344e-05
3.38e-08
d
yr
n .2366520722690625 1.9204e-09 deg/d
Q 2.933502411101063 1.587e-08 au
  Orbit Determination Parameters
   # obs. used (total)      507  
   data-arc span      10608 days (29.04 yr)  
   first obs. used      1991-05-07  
   last obs. used      2020-05-22  
   planetary ephem.      DE431  
   SB-pert. ephem.      SB431-N16  
   condition code      0  
   norm. resid. RMS      .64444  
   source      ORB  
   producer      Otto Matic  
   solution date      2020-Nov-12 19:58:41  

Additional Information
 Earth MOID = 1.29983 au 
 Jupiter MOID = 2.22858 au 
 T_jup = 3.365 
[ show covariance matrix ]

Ephemeris | Orbit Diagram | Orbital Elements | Mission Design | Physical Parameters | Discovery Circumstances ]

Physical Parameter Table
Parameter Symbol Value Units Sigma Reference Notes
absolute magnitude H 15.8   n/a MPO422324  

101753 (1999 FT19)          Discovered 1999-Mar-24 by Santangelo, M. M. M. at Monte Agliale
Reference: 20051019/Numbers.arcLast Updated: 2005-10-26

Alternate Designations
 1999 FT19 = 2001 TC142 
Ephemeris | Orbit Diagram | Orbital Elements | Mission Design | Physical Parameters | Discovery Circumstances ]
ABOUT SSD CREDITS/AWARDS PRIVACY/COPYRIGHT GLOSSARY LINKS
FirstGov 2020-Nov-26 22:17 UT
(server date/time)  
NASA Home Page
Site Manager:   Ryan S. Park
Webmaster  Alan B. Chamberlin